Regional Weather Roundup
Issued by NWS Portland, ME

Home | Current Version | Previous Version | Text Only | Print | Product List | Glossary On
Versions: 1 2 3 4 5 6 7 8 9 10 11 12 13 14 15 16 17 18 19 20 21 22 23 24 25 26 27 28 29 30 31 32 33 34 35 36 37 38 39 40 41 42 43 44 45 46 47 48 49 50
456
ASUS41 KGYX 160805
RWRGYX
WEATHER ROUNDUP FOR MAINE AND NEW HAMPSHIRE
NATIONAL WEATHER SERVICE GRAY ME
300 AM EST SAT DEC 16 2017

MEZ002-005-006-010-012-015-018-020-021-024-026-027-029-160900-
MAINE

CITY           SKY/WX    TMP DP  RH WIND       PRES   REMARKS
PORTLAND       CLOUDY    18  15  88 W3        29.77F
SANFORD        PTCLDY    13  10  88 W5        29.77S
BAR HARBOR     LGT SNOW  19  12  74 N5        29.77S
WISCASSET      CLOUDY    18  15  88 CALM      29.78F
ROCKLAND       LGT SNOW  20  16  84 NW3       29.77S FOG
FRYEBURG       MOCLDY     8   6  92 CALM      29.75S
LEWISTONAUBURN CLOUDY    14  11  87 CALM      29.75F
AUGUSTA        CLOUDY    16  12  84 N3        29.76S
WATERVILLE     CLOUDY    15   9  76 CALM      29.72S
BANGOR         FLURRIES  16  12  84 CALM      29.77S
GREENVILLE       N/A     12   6  77 N3        29.64F
MILLINOCKET    CLOUDY    10   7  87 CALM      29.76F
HOULTON        CLOUDY     6   4  91 N3        29.74F
PRESQUE ISLE   FLURRIES   6   3  87 N3        29.76F
FRENCHVILLE    CLOUDY     4   1  88 CALM      29.72F
CARIBOU        LGT SNOW   8   2  76 NE3       29.74F
$$

NHZ002-005-008-009-011-012-014-160900-
NEW HAMPSHIRE

CITY           SKY/WX    TMP DP  RH WIND       PRES   REMARKS
PORTSMOUTH     CLOUDY    21  12  70 W8        29.77R
ROCHESTER      PTCLDY    18  14  84 CALM      29.76R
NASHUA         MOCLDY    17  11  77 CALM      29.80S
MANCHESTER     MOCLDY    21  12  68 W3        29.78R
CONCORD        PTCLDY    14  10  84 CALM      29.78R
PLYMOUTH       FAIR       7   4  89 CALM      29.77S
BERLIN         CLOUDY     4   1  88 CALM      29.71S
WHITEFIELD     CLEAR      5   2  87 CALM      29.73R
JAFFREY        PTCLDY    11  10  96 CALM      29.75S
KEENE          PTCLDY    11  10  96 CALM      29.81R
LEBANON        MOCLDY     5   2  87 CALM      29.77S
MT WASHINGTON  FOG       -6  -6 100 NW37        N/A  VSB 1/8 WCI -36
$$

VTZ005-007-008-160900-
VERMONT

CITY           SKY/WX    TMP DP  RH WIND       PRES   REMARKS
ST JOHNSBURY     N/A      7   5  91 MISG      29.75S
MONTPELIER     MOCLDY     8   6  92 CALM      29.75F
BURLINGTON     CLOUDY    20  11  68 S9        29.77S
$$

MAZ007-012-024-CTZ003-RIZ002-NYZ038-NYZ072-160900-
SOUTHERN NEW ENGLAND AND NY

CITY           SKY/WX    TMP DP  RH WIND       PRES   REMARKS
BOSTON         MOCLDY    23  16  74 W13       29.82R WCI  11
WORCESTER      PTCLDY    17  12  80 W14       29.75R WCI   3
NANTUCKET      CLOUDY    28  26  92 NW16      29.81R WCI  16
PROVIDENCE     CLOUDY    22  18  85 W10       29.85R WCI  11
HARTFORD       PTCLDY    18  14  84 S3        29.86R
ALBANY         MOCLDY    19  15  84 SE5       29.84R
NEW YORK CITY  PTCLDY    27  18  69 W16G25    29.94R WCI  15
$$

ANZ081-ANZ082-ANZ150-NHZ014-MEZ023>029-160900-
COASTAL MARINE OBSERVATIONS

STATION/POSITION TIME  TEMP    WIND        PRES    WAVE
                       AIR SEA DIR/SP/G            HT/PER
                 (UTC) (F)     (DEG/KT/KT) (MB)    (FT/S)
MOUNT DESERT ROC 0800   25     350/ 17/ 19 1006.7F
MATINICUS ROCK   0700   26     350/ 18/ 20 1006.6R
ISLE OF SHOALS   0700   24     300/ 14/ 16 1008.1F
JEFFREYS LEDGE   0736      47                N/A     3/ 3
GEORGES BANK BUO 0650   39 50              1003.4    5/10
$$

.............KEY..............
   WCI - WIND CHILL
   TC  - TEMPERATURE IN CELSIUS
   VSB - VISIBILITY IN MILES
   HX  - HEAT INDEX
   FAIR- INDICATES FEW OR NO CLOUDS BELOW 12,000 FT, WITH NO
         SIGNIFICANT WEATHER AND/OR OBSTRUCTIONS TO VISIBILITY.






USA.gov is the U.S. government's official web portal to all federal, state and local government web resources and services.